Simultaneous Nadir Overpasses (SNOs) Predictions

Prediction of SNOs between AURA and NPP Satellite Orbit:

Table of predicted SNOs for the next 14.0 days since TLE Epoch: 12/31/2022
Index Date (AURA) Time (AURA) Lat,Lon (AURA) SZA (AURA ) Date (NPP) Time (NPP) Lat,Lon (NPP) SZA (NPP ) Distance(km) Time Diff (sec)
1 01/01/2023 19:09:32 -79.31, -31.40 64.68 01/01/2023 19:09:03 -79.31, -31.46 64.65 1.21 29
2 01/01/2023 19:58:49 79.65, 138.55 114.85 01/01/2023 19:59:37 79.65, 138.69 114.79 2.88 48
3 01/04/2023 10:36:33 79.16, -84.13 115.34 01/04/2023 10:35:20 79.15, -84.19 115.41 1.33 73
4 01/04/2023 11:25:52 -79.47, 85.59 65.10 01/04/2023 11:25:56 -79.48, 85.65 65.11 1.19 4
5 01/07/2023 02:52:53 79.29, 32.62 114.92 01/07/2023 02:52:14 79.28, 32.57 114.96 1.26 39
6 01/07/2023 03:42:13 -79.56,-157.86 65.48 01/07/2023 03:42:51 -79.57,-157.80 65.52 1.38 38
7 01/09/2023 19:09:11 79.46, 149.72 114.37 01/09/2023 19:09:06 79.47, 149.85 114.35 2.98 5
8 01/09/2023 19:58:33 -79.66, -41.24 65.92 01/09/2023 19:59:46 -79.66, -41.27 65.97 0.75 73
9 01/12/2023 10:36:11 -79.28, 96.77 65.74 01/12/2023 10:35:24 -79.28, 96.80 65.71 0.60 47



Historial Predications of SNOs between AURA and NPP
